This is the latest recevied weather packets stored in our database for station/object KJ5BMY-13. If no packets are shown the sender has not sent any weather packets the latest 1 day(s).
| Time | Temp. | Humidity | Pressure | Rain* | Wind** | Luminosity | Snow |
|---|---|---|---|---|---|---|---|
| 1778016416 | 33.33° C | 51% | 1005.9 hPa | 0 mm | 0.89 m/s, 193° | - | - |
| 1778016113 | 32.78° C | 52% | 1006 hPa | 0 mm | 0.89 m/s, 200° | - | - |
| 1778015810 | 33.89° C | 51% | 1005.9 hPa | 0 mm | 1.34 m/s, 244° | - | - |
| 1778015507 | 33.33° C | 51% | 1006 hPa | 0 mm | 0.45 m/s, 181° | - | - |
| 1778015204 | 33.33° C | 52% | 1005.8 hPa | 0 mm | 0.89 m/s, 251° | - | - |
| 1778014901 | 33.33° C | 52% | 1006.1 hPa | 0 mm | 1.34 m/s, 226° | - | - |
| 1778014598 | 32.78° C | 54% | 1006.2 hPa | 0 mm | 0.89 m/s, 119° | - | - |
| 1778014296 | 32.78° C | 54% | 1006.2 hPa | 0 mm | 1.34 m/s, 151° | - | - |
| 1778014003 | 32.22° C | 54% | 1006.4 hPa | 0 mm | 2.24 m/s, 227° | - | - |
| 1778013691 | 31.67° C | 54% | 1006.3 hPa | 0 mm | 0.89 m/s, 219° | - | - |
| 1778013387 | 32.22° C | 54% | 1006.5 hPa | 0 mm | 1.34 m/s, 73° | - | - |
| 1778013085 | 31.67° C | 57% | 1006.5 hPa | 0 mm | 0.45 m/s, 206° | - | - |
| 1778012780 | 31.67° C | 56% | 1006.4 hPa | 0 mm | 1.34 m/s, 190° | - | - |
| 1778012476 | 31.67° C | 56% | 1006.5 hPa | 0 mm | 2.24 m/s, 194° | - | - |
| 1778012173 | 33.33° C | 55% | 1006.5 hPa | 0 mm | 1.34 m/s, 3° | - | - |
| 1778011871 | 32.78° C | 57% | 1006.4 hPa | 0 mm | 0.89 m/s, 359° | - | - |
| 1778011569 | 32.22° C | 57% | 1006.5 hPa | 0 mm | 0.89 m/s, 263° | - | - |
| 1778011265 | 31.67° C | 59% | 1006.4 hPa | 0 mm | 0.89 m/s, 21° | - | - |
| 1778010961 | 31.67° C | 59% | 1006.6 hPa | 0 mm | 0.45 m/s, 26° | - | - |
| 1778010659 | 31.67° C | 59% | 1006.7 hPa | 0 mm | 1.34 m/s, 172° | - | - |
| 1778010356 | 32.22° C | 61% | 1006.5 hPa | 0 mm | 0.45 m/s, 165° | - | - |
| 1778010051 | 31.11° C | 62% | 1006.8 hPa | 0 mm | 0.45 m/s, 37° | - | - |
| 1778009749 | 31.11° C | 62% | 1006.5 hPa | 0 mm | 0.89 m/s, 108° | - | - |
| 1778009446 | 31.11° C | 63% | 1006.8 hPa | 0 mm | 0.89 m/s, 66° | - | - |
| 1778009144 | 31.11° C | 63% | 1006.6 hPa | 0 mm | 0.89 m/s, 170° | - | - |
* Rain latest hour (hover to see other rain measurements)
** Current wind speed in m/s (hover to see current wind gust speed)